Overview Statistics Trail Chart Weather Telemetry Raw packets
 

This is the latest recevied weather packets stored in our database for station/object FACT. If no packets are shown the sender has not sent any weather packets the latest 10 day(s).

<< 54 55 56 57 58 >>
Time Temp. Humidity Pressure Rain* Wind** Luminosity Snow
1787741000 22.78° C 40% 1018 hPa - - - -
1787740401 22.78° C 40% 1018 hPa - - - -
1787739799 22.78° C 40% 1018 hPa - - - -
1787739202 22.78° C 40% 1018 hPa - - - -
1787738603 20.56° C 46% 1018 hPa - - - -
1787738000 20.56° C 46% 1018 hPa - - - -
1787737402 20.56° C 46% 1018 hPa - - - -
1787736800 20.56° C 46% 1018 hPa - - - -
1787736198 20.56° C 46% 1018 hPa - - - -
1787735600 20.56° C 46% 1018 hPa - - - -
1787735000 18.89° C 52% 1018 hPa - - - -
1787734403 18.89° C 52% 1018 hPa - - - -
1787733803 18.89° C 52% 1018 hPa - - - -
1787733203 18.89° C 52% 1018 hPa - - - -
1787732601 18.89° C 52% 1018 hPa - - - -
1787732002 18.89° C 52% 1018 hPa - - - -
1787731403 18.89° C 52% 1018 hPa - - - -
1787730802 16.67° C 63% 1018 hPa - - - -
1787730204 16.67° C 63% 1018 hPa - - - -
1787729600 16.67° C 63% 1018 hPa - - - -
1787729001 15° C 72% 1018 hPa - - - -
1787728401 12.78° C 76% 1018 hPa - - - -
1787727801 12.78° C 76% 1018 hPa - - - -
1787727201 10.56° C 81% 1018 hPa - - - -
1787726601 10.56° C 81% 1018 hPa - - - -

* Rain since midnight (hover to see other rain measurements)
** Current wind speed in m/s (hover to see current wind gust speed)